Weather in Filey

United Kingdom     54°12′44″N   0°17′19″E
temp.,
°C
wind,
m/s
gust,
m/s
humid.,
%
clouds,
%
prec.,
mm/h
press.,
hPa
HPBL,
m
19 april, mon
mon1901:00+7sse11795 0.0 102526
04:00+6wsw11795 0.0 102427
07:00+6wsw11765 0.0 102435
10:00+8se11721 0.0 1023112
13:00+8ese44780 0.0 1023213
16:00+8se45770 0.0 1022190
19:00+8se45790 0.0 1021115
22:00+8sse347848 0.0 102152
20 april, tue
tue2001:00+7ssw337842 0.0 102161
04:00+7sw23775 0.0 102064
07:00+7sw2274100 0.0 102056
10:00+9ssw2272100 0.0 102064
13:00+9e327080 0.0 1020199
16:00+10n4472100 0.0 1020152
19:00+9n5683100 0.0 1021140
22:00+8n588598 0.0 1022178
21 april, wed
wed2101:00+8nne789284 0.0 1022328
04:00+7nne698898 0.2 1023501
07:00+7nne797412 0.2 1024826
10:00+7nne78716 0.0 1025817
13:00+7nne56645 0.0 1026863
16:00+7nne45626 0.0 1026816
19:00+7nne346550 0.0 1026733
22:00+6nne23665 0.0 1026577
22 april, thu
thu2201:00+5wnw21695 0.0 1026174
04:00+4w337378 0.0 1026117
07:00+5wnw226384 0.0 1026109
10:00+6nw015643 0.0 1026176
13:00+6ese326233 0.0 1027267
16:00+7se546858 0.0 1027230
19:00+7sse447238 0.0 1027188
22:00+7ssw337625 0.0 1027107
23 april, fri
fri2301:00+6sw347546 0.0 1027121
04:00+6wsw34776 0.0 1027114
07:00+6wsw347417 0.0 1027120
10:00+9sw33685 0.0 1027110
13:00+10sse55715 0.0 1027204
16:00+8sse77785 0.0 1026208
19:00+8sse56736 0.0 1025101
22:00+7ssw336780 0.0 102651